This is the latest recevied weather packets stored in our database for station/object EA3AGY-13. If no packets are shown the sender has not sent any weather packets the latest 10 day(s).
| Time | Temp. | Humidity | Pressure | Rain* | Wind** | Luminosity | Snow |
|---|---|---|---|---|---|---|---|
| 1777741612 | 9.44° C | 36% | 1018.5 hPa | 0 mm | - | - | - |
| 1777739806 | 10.56° C | 37% | 1018.4 hPa | 0 mm | - | - | - |
| 1777739202 | 10° C | 38% | 1018.6 hPa | 0 mm | - | - | - |
| 1777738600 | 10.56° C | 37% | 1018.8 hPa | 0 mm | - | - | - |
| 1777737997 | 11.11° C | 36% | 1018.8 hPa | 0 mm | - | - | - |
| 1777737395 | 11.67° C | 37% | 1018.9 hPa | 0 mm | - | - | - |
| 1777736793 | 11.67° C | 37% | 1018.9 hPa | 0 mm | - | - | - |
| 1777735589 | 11.11° C | 37% | 1019 hPa | 0 mm | - | - | - |
| 1777733777 | 10.56° C | 36% | 1019.2 hPa | 0 mm | - | - | - |
| 1777732572 | 10° C | 37% | 1019.4 hPa | 0 mm | - | - | - |
| 1777731363 | 10.56° C | 37% | 1019.8 hPa | 0 mm | - | - | - |
| 1777730162 | 10° C | 38% | 1020.1 hPa | 0 mm | - | - | - |
| 1777729556 | 9.44° C | 40% | 1020.2 hPa | 0 mm | - | - | - |
| 1777728955 | 9.44° C | 39% | 1020.1 hPa | 0 mm | - | - | - |
| 1777727749 | 10.56° C | 37% | 1020.2 hPa | 0 mm | - | - | - |
| 1777727147 | 9.44° C | 38% | 1020.3 hPa | 0 mm | - | - | - |
| 1777726544 | 9.44° C | 38% | 1020.4 hPa | 0 mm | - | - | - |
| 1777725942 | 9.44° C | 39% | 1020.3 hPa | 0 mm | - | - | - |
| 1777725340 | 9.44° C | 41% | 1020.4 hPa | 0 mm | - | - | - |
| 1777723533 | 10.56° C | 38% | 1020.3 hPa | 0 mm | - | - | - |
| 1777722932 | 10° C | 38% | 1020.5 hPa | 0 mm | - | - | - |
| 1777722329 | 10° C | 38% | 1020.5 hPa | 0 mm | - | - | - |
| 1777721725 | 10° C | 38% | 1020.4 hPa | 0 mm | - | - | - |
| 1777721123 | 11.11° C | 38% | 1020.5 hPa | 0 mm | - | - | - |
| 1777719918 | 10° C | 38% | 1020.6 hPa | 0 mm | - | - | - |
* Rain since midnight (hover to see other rain measurements)
** Current wind speed in m/s (hover to see current wind gust speed)